Home   Weather   Cottbus   Past weeks

Flag for Germany Past Weather in Cottbus, Brandenburg, Germany — Yesterday and Last 2 Weeks

Now
28 °F

Chilly.


Feels Like: 25 °F
Forecast: 25 / 36 °F
Wind: 3 mph from West

Location: Holzdorf

Current Time: Dec 3, 2016 at 1:32:25 am

Latest Report: Dec 3, 2016 at 12:20 am


Visibility: N/A

Pressure: 30.21 "Hg

Humidity: 93%

Dew Point: 27 °F

Location of CottbusLocation

Past Weather in Cottbus — Graph

°F

Cottbus Temperature Yesterday

Maximum temperature yesterday: 45 °F (at 12:20 am)
Minimum temperature yesterday: 27 °F (at 10:20 pm)
Average temperature yesterday: 39 °F

High & Low Weather Summary for the Past Weeks

 TemperatureHumidityPressure
High59 °F (Nov 18, 11:20 am)100% (Nov 18, 1:20 pm)30.57 "Hg (Nov 18, 1:20 pm)
Low19 °F (Nov 29, 11:20 pm)59% (Nov 18, 11:58 am)29.47 "Hg (Nov 18, 10:20 am)
Average39 °F88%30.05 "Hg
* Reported Nov 18 12:20 am — Dec 3 12:20 am, Cottbus, Weather by CustomWeather, © 2016

Note: Actual official high and low records may vary slightly from our data, if they occured in-between our weather recording intervals... More about our weather records

Advertising

Cottbus Weather History for the Previous 24 Hours

Scroll right to see more
 ConditionsComfort  
Time TempWeatherWind HumidityBarometerVisibility
12:20 am
Sat, Dec 3
28 °FChilly.3 mph93%30.21 "HgN/A
11:20 pm
Fri, Dec 2
27 °FChilly.5 mph93%30.21 "HgN/A
10:20 pm27 °FChilly.3 mph86%30.18 "HgN/A
9:20 pm30 °FChilly.5 mph93%30.18 "HgN/A
8:20 pm32 °FChilly.6 mph87%30.18 "HgN/A
7:20 pm32 °FChilly.6 mph80%30.18 "HgN/A
6:20 pm34 °FChilly.5 mph81%30.15 "HgN/A
5:20 pm34 °FPassing clouds.6 mph81%30.15 "HgN/A
4:20 pm36 °FPassing clouds.6 mph75%30.12 "HgN/A
3:20 pm39 °FPassing clouds.7 mph70%30.12 "HgN/A
2:20 pm41 °FScattered clouds.10 mph66%30.09 "HgN/A
1:20 pm43 °FScattered clouds.12 mph66%30.09 "HgN/A
12:20 pm41 °FPassing clouds.12 mph70%30.09 "HgN/A
11:20 am41 °FPassing clouds.12 mph66%30.07 "HgN/A
10:20 am41 °FPassing clouds.12 mph70%30.07 "HgN/A
9:20 am39 °FPassing clouds.8 mph75%30.04 "HgN/A
8:20 am37 °FScattered clouds.8 mph81%29.98 "HgN/A
7:20 am39 °FPassing clouds.12 mph75%29.95 "HgN/A
6:20 am41 °FPassing clouds.12 mph76%29.89 "HgN/A
5:20 am43 °FPartly cloudy.15 mph71%29.86 "HgN/A
4:20 am45 °FPartly cloudy.13 mph81%29.83 "HgN/A
3:20 am45 °FPartly cloudy.15 mph81%29.83 "HgN/A
2:50 am45 °FPassing clouds.20 mph81%29.83 "HgN/A
2:20 am45 °FLight rain. Passing clouds.16 mph87%29.83 "HgN/A
1:20 am45 °FLight rain. Passing clouds.15 mph93%29.83 "HgN/A
Weather by CustomWeather, © 2016

See weather overviewHow to use our weather pages